This demonstration page uses our WeatherBlox Daily Observations layout. Learn more.

Left ArrowRight Arrow

Hourly Observations for September 24, 2021

Temp ( °F °C ) Dew Point ( °F °C ) Humidity (%) Winds ( mph kmh ) Pressure ( in mb ) Visibility ( mi km ) Precip ( " mm )
12:54 am 00:54 Clear 56 13.3 46 7.8 70 70 SSE 9 15 29.88 1012 10 16 N/A
1:54 am 01:54 Clear 57 13.9 46 7.8 67 67 S 7 11 29.86 1011 10 16 N/A
2:54 am 02:54 Clear 57 13.9 46 7.8 67 67 S 9 15 29.84 1011 10 16 N/A
3:54 am 03:54 Clear 61 16.1 46 7.8 58 58 S 3 6 29.84 1010 10 16 N/A
4:54 am 04:54 Clear 58 14.4 46 7.8 65 65 S 6 9 29.83 1010 10 16 N/A
5:54 am 05:54 Clear 54 12.2 45 7.2 72 72 S 7 11 29.83 1010 10 16 N/A
6:54 am 06:54 Clear 59 15 45 7.2 60 60 W 3 6 29.85 1011 10 16 N/A
7:54 am 07:54 Sunny 55 12.8 45 7.2 69 69 N N/A 29.88 1012 10 16 N/A
8:54 am 08:54 Sunny 59 15 47 8.3 64 64 NW 7 11 29.89 1012 10 16 N/A
9:54 am 09:54 Sunny 68 20 50 10 53 53 N 21 33 29.93 1013 10 16 N/A
10:54 am 10:54 Sunny 69 20.6 51 10.6 53 53 NNW 20 31 29.96 1014 10 16 N/A
11:54 am 11:54 Mostly Cloudy 70 21.1 51 10.6 51 51 N 18 30 29.97 1015 10 16 N/A
12:54 pm 12:54 Partly Cloudy 70 21.1 51 10.6 51 51 N 20 31 30.01 1016 10 16 N/A
1:54 pm 13:54 Partly Cloudy 69 20.6 52 11.1 55 55 N 17 28 30.01 1016 10 16 N/A
2:54 pm 14:54 Cloudy with Light Rain 67 19.4 51 10.6 57 57 NNW 14 22 30.03 1017 10 16 0.00 0.00
3:54 pm 15:54 Cloudy with Light Rain 61 16.1 52 11.1 72 72 NW 7 11 30.04 1017 7 11 0.00 0.00
4:54 pm 16:54 Sunny 63 17.2 55 12.8 76 76 WNW 6 9 30.05 1018 10 16 0.01 0.25
5:54 pm 17:54 Sunny 66 18.9 55 12.8 68 68 W 7 11 30.06 1018 10 16 N/A
6:54 pm 18:54 Sunny 67 19.4 52 11.1 59 59 W 3 6 30.06 1018 10 16 N/A
7:54 pm 19:54 Clear 63 17.2 49 9.4 60 60 N 5 7 30.09 1019 10 16 N/A
8:54 pm 20:54 Clear 58 14.4 45 7.2 62 62 NNW 5 7 30.11 1020 10 16 N/A
9:54 pm 21:54 Clear 55 12.8 45 7.2 69 69 N N/A 30.12 1020 10 16 N/A
10:54 pm 22:54 Clear 49 9.4 43 6.1 80 80 N N/A 30.13 1020 10 16 N/A
11:54 pm 23:54 Clear 47 8.3 43 6.1 86 86 W 3 6 30.14 1021 10 16 N/A

Powered by AerisWeather